Home   Weather   Beja   Past weeks

Flag for Portugal Past Weather in Beja, Portugal — Yesterday and Last 2 Weeks

Now
50 °F

Clear.


Feels Like: 47 °F
Forecast: N/A
Wind: 7 mph from Northwest

Location: Beja Airport

Current Time: Jan 16, 2017 at 7:46:24 pm

Latest Report: Jan 16, 2017 at 7:00 pm


Visibility: 10 mi

Pressure: 30.27 "Hg

Humidity: 62%

Dew Point: 37 °F

Location of BejaLocation

Past Weather in Beja — Graph

°F

Beja Temperature Yesterday

Maximum temperature yesterday: 57 °F (at 3:00 pm)
Minimum temperature yesterday: 34 °F (at 4:00 am)
Average temperature yesterday: 45 °F

High & Low Weather Summary for the Past Weeks

 TemperatureHumidityPressure
High66 °F (Jan 11, 3:00 pm)100% (Jan 3, 1:00 am)30.48 "Hg (Jan 3, 1:00 am)
Low32 °F (Jan 16, 7:00 am)33% (Jan 14, 2:00 pm)29.98 "Hg (Jan 2, 4:00 am)
Average49 °F84%30.28 "Hg
* Reported Jan 1 6:00 pm — Jan 16 6:00 pm, Beja, Weather by CustomWeather, © 2017

Note: Actual official high and low records may vary slightly from our data, if they occured in-between our weather recording intervals... More about our weather records

Advertising

Beja Weather History for the Previous 24 Hours

Scroll right to see more
 ConditionsComfort  
Time TempWeatherWind HumidityBarometerVisibility
6:00 pm
Mon, Jan 16
52 °FClear.7 mph58%30.27 "Hg10 mi
5:00 pm57 °FSunny.7 mph48%30.24 "Hg10 mi
4:00 pm59 °FSunny.8 mph45%30.27 "Hg10 mi
3:00 pm59 °FPassing clouds.3 mph39%30.27 "HgN/A
2:00 pm55 °FPassing clouds.5 mph47%30.27 "HgN/A
1:00 pm54 °FSunny.6 mph51%30.33 "Hg10 mi
12:00 pm52 °FPassing clouds.5 mph54%30.36 "HgN/A
11:00 am48 °FPassing clouds.6 mph62%30.39 "HgN/A
10:00 am43 °FSunny.5 mph71%30.36 "Hg10 mi
9:00 am39 °FSunny.1 mph81%30.36 "Hg10 mi
8:00 am36 °FSunny.1 mph87%30.36 "Hg10 mi
7:00 am32 °FClear.No wind87%30.36 "Hg10 mi
6:00 am34 °FClear.1 mph93%30.36 "Hg10 mi
5:00 am34 °FClear.3 mph87%30.36 "Hg10 mi
4:00 am36 °FClear.2 mph81%30.36 "Hg10 mi
3:00 am36 °FClear.2 mph81%30.36 "Hg10 mi
2:00 am37 °FClear.1 mph75%30.36 "Hg10 mi
1:00 am37 °FClear.3 mph75%30.39 "Hg10 mi
12:00 am41 °FClear.2 mph66%30.39 "Hg10 mi
11:00 pm
Sun, Jan 15
43 °FClear.3 mph61%30.39 "Hg10 mi
10:00 pm45 °FClear.5 mph57%30.42 "Hg10 mi
9:00 pm43 °FPassing clouds.5 mph66%30.42 "HgN/A
8:00 pm46 °FClear.3 mph57%30.39 "Hg10 mi
7:00 pm46 °FClear.7 mph57%30.39 "Hg10 mi
Weather by CustomWeather, © 2017

See weather overviewHow to use our weather pages